Terug naar catalogus

STARLINK-4570

ActiefCommunicatieSSO
NORAD 53690·PAYLOAD·🇺🇸 United States

Gelanceerd Aug 31, 2022 vanaf Vandenberg Space Force Base

Loading…

Volgende Passages (komende 24 uur)

TLE

VersSource: CelesTrak SupGP

Epoch: Sep 14, 2026, 21:21 UTC

1 53690C 22105AU  26257.89006944 -.00016095  00000+0 -11180-2 0  2577
2 53690  97.2843 131.9864 0002164  86.9323 234.7289 15.05648454    12

Volg STARLINK-4570 in realtime met AllMySat

Download on the App Store